TimeEST,TemperatureF,Dew PointF,Humidity,Sea Level PressureIn,VisibilityMPH,Wind Direction,Wind SpeedMPH,Gust SpeedMPH,PrecipitationIn,Events,Conditions,WindDirDegrees,DateUTC
12:10 AM,8.6,3.2,79,30.02,3.0,Calm,Calm,-,N/A,,Overcast,0,2013-01-26 05:10:00
12:54 AM,3.9,-0.0,84,30.07,10.0,Calm,Calm,-,N/A,,Clear,0,2013-01-26 05:54:00
1:54 AM,3.9,-0.0,84,30.08,10.0,Calm,Calm,-,N/A,,Mostly Cloudy,0,2013-01-26 06:54:00
2:54 AM,8.1,3.9,83,30.10,8.0,Calm,Calm,-,0.00,Snow,Light Snow,0,2013-01-26 07:54:00
3:10 AM,8.6,6.8,92,30.06,2.0,Calm,Calm,-,0.01,Snow,Light Snow,0,2013-01-26 08:10:00
3:23 AM,8.6,6.8,92,30.06,3.0,Calm,Calm,-,0.01,Snow,Light Snow,0,2013-01-26 08:23:00
3:34 AM,10.4,6.8,85,30.06,2.5,Calm,Calm,-,0.01,Snow,Light Snow,0,2013-01-26 08:34:00
3:43 AM,10.4,8.6,92,30.06,4.0,Calm,Calm,-,0.01,Snow,Light Snow,0,2013-01-26 08:43:00
3:54 AM,10.9,8.1,88,30.11,4.0,Calm,Calm,-,0.01,Snow,Light Snow,0,2013-01-26 08:54:00
4:17 AM,10.4,8.6,92,30.07,2.5,Calm,Calm,-,0.01,Snow,Light Snow,0,2013-01-26 09:17:00
4:45 AM,12.2,8.6,85,30.08,4.0,Variable,3.5,-,0.01,Snow,Light Snow,0,2013-01-26 09:45:00
4:54 AM,12.9,9.0,84,30.13,4.0,Calm,Calm,-,0.01,Snow,Light Snow,0,2013-01-26 09:54:00
5:54 AM,12.9,10.0,88,30.14,5.0,West,3.5,-,0.00,Snow,Light Snow,270,2013-01-26 10:54:00
6:54 AM,12.9,9.0,84,30.17,9.0,Calm,Calm,-,0.00,,Overcast,0,2013-01-26 11:54:00
7:54 AM,12.0,9.0,88,30.19,6.0,Calm,Calm,-,0.00,Snow,Light Snow,0,2013-01-26 12:54:00
8:23 AM,12.2,8.6,85,30.15,2.5,West,3.5,-,0.00,Snow,Light Snow,270,2013-01-26 13:23:00
8:54 AM,14.0,10.9,88,30.21,2.0,West,3.5,-,0.00,Snow,Light Snow,270,2013-01-26 13:54:00
9:04 AM,15.8,12.2,86,30.17,1.2,Calm,Calm,-,0.00,Snow,Light Snow,0,2013-01-26 14:04:00
9:54 AM,17.1,14.0,88,30.24,2.0,Variable,3.5,-,0.01,Snow,Light Snow,0,2013-01-26 14:54:00
10:09 AM,17.6,14.0,86,30.21,3.0,WNW,5.8,-,0.00,Snow,Light Snow,300,2013-01-26 15:09:00
10:46 AM,21.2,15.8,80,30.23,3.0,NNW,5.8,-,0.01,Snow,Light Snow,340,2013-01-26 15:46:00
10:54 AM,21.9,17.1,82,30.28,2.5,NNW,6.9,-,0.01,Snow,Light Snow,330,2013-01-26 15:54:00
11:14 AM,21.2,17.6,86,30.24,1.0,North,8.1,-,0.00,Snow,Light Snow,350,2013-01-26 16:14:00
11:54 AM,21.9,17.1,82,30.31,1.8,North,8.1,-,0.01,Snow,Light Snow,360,2013-01-26 16:54:00
11:58 AM,21.2,17.6,86,30.26,3.0,North,8.1,-,0.00,Snow,Light Snow,360,2013-01-26 16:58:00
12:25 PM,21.2,15.8,80,30.26,10.0,North,9.2,-,0.00,,Mostly Cloudy,360,2013-01-26 17:25:00
12:33 PM,23.0,17.6,80,30.27,6.0,North,11.5,-,0.00,Snow,Light Snow,10,2013-01-26 17:33:00
12:54 PM,21.9,15.1,75,30.32,10.0,North,11.5,-,0.00,,Mostly Cloudy,360,2013-01-26 17:54:00
1:54 PM,23.0,16.0,74,30.32,10.0,North,9.2,-,0.00,,Overcast,10,2013-01-26 18:54:00
2:54 PM,23.0,14.0,68,30.34,10.0,NNW,8.1,-,0.00,,Overcast,340,2013-01-26 19:54:00
3:54 PM,23.0,14.0,68,30.36,10.0,North,8.1,-,N/A,,Overcast,350,2013-01-26 20:54:00
4:54 PM,21.0,12.0,68,30.38,10.0,North,5.8,-,N/A,,Overcast,350,2013-01-26 21:54:00
5:44 PM,19.4,10.4,68,30.34,10.0,Calm,Calm,-,N/A,,Scattered Clouds,0,2013-01-26 22:44:00
5:54 PM,19.9,12.0,71,30.40,10.0,Calm,Calm,-,N/A,,Mostly Cloudy,0,2013-01-26 22:54:00
6:35 PM,14.0,8.6,79,30.37,10.0,Calm,Calm,-,N/A,,Scattered Clouds,0,2013-01-26 23:35:00
6:54 PM,12.9,10.0,88,30.42,10.0,Calm,Calm,-,N/A,,Partly Cloudy,0,2013-01-26 23:54:00
7:54 PM,9.0,7.0,92,30.43,3.0,Calm,Calm,-,N/A,,Clear,0,2013-01-27 00:54:00
8:54 PM,6.1,1.0,80,30.44,10.0,Calm,Calm,-,N/A,,Clear,0,2013-01-27 01:54:00
9:54 PM,1.0,-2.0,87,30.44,10.0,Calm,Calm,-,N/A,,Clear,0,2013-01-27 02:54:00
10:54 PM,1.0,-2.9,83,30.44,10.0,Calm,Calm,-,N/A,,Clear,0,2013-01-27 03:54:00
11:54 PM,-0.0,-4.0,83,30.46,10.0,Calm,Calm,-,N/A,,Partly Cloudy,0,2013-01-27 04:54:00